Regional Weather Roundup
Issued by NWS

Home | Current Version | Previous Version | Text Only | Print | Product List | Glossary On
Versions: 1 2 3 4 5 6 7 8 9 10 11 12 13 14 15 16 17 18 19 20 21 22 23 24 25 26 27 28
000
ASUS42 KKEY 250310
RWRKEY

FLORIDA REGIONAL WEATHER ROUNDUP FOR THE FLORIDA KEYS
NATIONAL WEATHER SERVICE KEY WEST FLORIDA
1100 PM EDT SUN JUL 24 2016

...SOUTH FLORIDA AND THE KEYS...

CITY           SKY/WX    TMP DP  RH WIND       PRES   REMARKS
FORT MYERS     CLEAR     78  73  84 SE3       30.07R
SW REGIONAL AP PTCLDY    78  72  81 E5        30.08R
NAPLES         CLEAR     77  73  87 E3        30.07R
MIAMI          CLOUDY    82  74  76 E7        30.07F
WEST KENDALL   PTCLDY    79  74  84 CALM      30.07S
HOMESTEAD      CLOUDY    81  74  80 NE1       30.06F
MARATHON       CLOUDY    81  76  84 CALM      30.06S
BOCA CHICA NAS CLOUDY    81  69  67 SE3       30.05F
KEY WEST INTL  PTCLDY    82  71  69 SE5       30.06S

...INTERNATIONAL WEATHER...

CITY           SKY/WX    TMP DP  RH WIND       PRES   REMARKS
NASSAU BAHAMAS PTCLDY    84  77  79 E3        30.09R HX  94
CANCUN MEXICO  CLOUDY    79  77  94 NE6       30.01R
COZUMEL MEXICO MOCLDY    77  75  94 E3        30.01R

ADJACENT COASTAL WATERS...

STATION/POSITION TIME  SKY/WX   TEMP    WIND        PRES    WAVE
                                AIR SEA DIR/SP/G            HT/PER
                 (UTC)          (F)     (DEG/KT/KT) (MB)    (FT/S)
PULASKI SHOAL LI 0300            83     130/  5/  5 1017.8R
SAND KEY         0250            82     120/ 10/ 11 1018.2R
LONG KEY         0300            83 86   80/  3/  4 1018.4R
FOWEY ROCKS      0300            83 84  110/  8/ 10 1018.6F

$$




USA.gov is the U.S. government's official web portal to all federal, state and local government web resources and services.